Regional Weather Roundup
Issued by NWS

Home | Current Version | Previous Version | Text Only | Print | Product List | Glossary On
Versions: 1 2 3 4 5 6 7 8 9 10 11 12 13 14 15 16 17 18 19 20 21 22 23 24 25 26 27 28 29 30 31 32 33 34 35 36 37 38 39 40 41 42 43 44 45 46 47 48 49 50
000
ASUS43 KTOP 081608
RWRKS

WEATHER ROUNDUP FOR KANSAS
NATIONAL WEATHER SERVICE GOODLAND KS
1000 AM CST MON FEB 08 2016

NOTE:  "FAIR" INDICATES FEW OR NO CLOUDS BELOW 12,000 FEET WITH NO
SIGNIFICANT WEATHER AND/OR OBSTRUCTIONS TO VISIBILITY.

KSZ001>006-013>018-027>032-041>047-081700-
NORTHWEST KANSAS

CITY           SKY/WX    TMP DP  RH WIND       PRES   REMARKS
GOODLAND       SUNNY     28  14  55 NW21      30.37R WCI  15
HAYS           SUNNY     34  10  37 NW33G45   30.30R WCI  19
HILL CITY      SUNNY     32  16  51 NW23G37   30.33R WCI  19
RUSSELL        SUNNY     34  16  47 NW35G46   30.28R WCI  19
$$

KSZ061>065-074>080-084>089-081700-
SOUTHWEST KANSAS

CITY           SKY/WX    TMP DP  RH WIND       PRES   REMARKS
DODGE CITY     SUNNY     35  10  35 NW24G33   30.36R WCI  23
ELKHART          N/A     39  12  33 NW18        N/A  WCI  30
GARDEN CITY    SUNNY     35  10  35 N21       30.38R WCI  24
GREAT BEND     SUNNY     37  12  35 NW33G41   30.29S WCI  24
LIBERAL        SUNNY     39  14  35 NW25G32   30.41R WCI  28
PRATT          SUNNY     34  10  37 NW28G40   30.30S WCI  21
$$

KSZ066>073-081>083-090>101-081700-
SOUTHEAST KANSAS

CITY           SKY/WX    TMP DP  RH WIND       PRES   REMARKS
CHANUTE        CLOUDY    38  18  44 NW25G39   30.12R WCI  27
COFFEYVILLE    SUNNY     40  18  41 NW30G38   30.15R WCI  28
HUTCHINSON     SUNNY     38  14  37 NW24G47   30.24R WCI  27
MEDICINE LODGE   N/A     39  12  33 NW31G46   30.29R WCI  27
NEWTON         SUNNY     36  16  44 N30G44    30.21R WCI  22
PARSONS        MOSUNNY   40  19  43 NW26G39   30.13R WCI  29
WICHITA INTL   MOSUNNY   39  15  37 NW25G45   30.23R WCI  28
WICHITA JABRA  SUNNY     37  16  42 NW31G44   30.22R WCI  24
WINFIELD       SUNNY     40  16  37 NW32G41   30.24R WCI  28
$$

KSZ007>012-019>026-033>040-048>060-102>105-081700-
NORTHEAST KANSAS

CITY           SKY/WX    TMP DP  RH WIND       PRES   REMARKS
CONCORDIA      MOSUNNY   32  17  54 NW26G38   30.21R WCI  18
EMPORIA        CLOUDY    35  16  45 NW31G48   30.14R WCI  22
LAWRENCE       CLOUDY    32  16  51 NW36G46   30.10R WCI  16
MANHATTAN      CLOUDY    34  18  52 N10G24    30.19R WCI  26
MARYSVILLE     CLOUDY    32  19  59 NW25G41   30.14R WCI  19
OLATHE IND     CLOUDY    31  17  56 NW24G32   30.07R WCI  17
OLATHE EXE     CLOUDY    30  17  58 N20G30    30.06R WCI  17
SALINA         SUNNY     37  16  42 NW31G41   30.22R WCI  24
TOPEKA BILLARD CLOUDY    33  16  49 NW28G40   30.13R WCI  20
TOPEKA FORBES  CLOUDY    34  18  52 NW32G40   30.11R WCI  20
$$




USA.gov is the U.S. government's official web portal to all federal, state and local government web resources and services.